period_start,C,m1,H,J0,J1,J2,J3,J4,J5,JA,JB,JC,JD,JJ,JK,JN,#
2018-08-27 00:00:06,0.02,1.28,0.00,26.20,29.90,32.64,13.88,47.84,1022.50,2015.04,2875.62,2733.97,3122.56,600.05,593.17,45.04,0000 0000 0000 0000 000000
2018-08-27 00:05:07,0.02,1.29,0.00,26.22,29.92,32.68,13.82,47.74,1022.49,2015.00,2875.01,2733.49,3122.01,599.58,592.69,45.09,0000 0000 0000 0000 000000
2018-08-27 00:10:09,0.02,1.29,0.00,26.22,29.93,32.70,13.82,47.62,1022.54,2015.00,2874.69,2733.01,3121.70,599.37,592.46,45.14,0000 0000 0000 0000 000000
2018-08-27 00:15:10,0.03,1.29,0.00,26.26,29.95,32.67,13.84,47.37,1022.52,2014.99,2873.96,2732.67,3120.99,599.92,592.87,45.19,0000 0000 0000 0000 000000
2018-08-27 00:20:11,0.08,1.29,0.00,26.29,29.97,32.67,13.85,47.41,1022.50,2014.99,2872.86,2731.69,3119.90,600.06,593.03,45.24,0000 0000 0000 0000 000000
2018-08-27 00:25:13,0.06,1.30,0.00,26.31,29.98,32.71,13.87,47.46,1022.58,2014.98,2871.73,2730.72,3118.90,599.80,592.72,45.29,0000 0000 0000 0000 000000
2018-08-27 00:30:14,0.04,1.30,0.00,26.33,30.00,32.70,13.89,47.45,1022.64,2014.98,2870.92,2730.02,3118.05,600.03,592.94,45.34,0000 0000 0000 0000 000000
2018-08-27 00:35:15,0.05,1.30,0.00,26.36,30.02,32.68,13.79,47.38,1022.60,2014.96,2870.08,2729.50,3117.41,599.63,592.45,45.39,0000 0000 0000 0000 000000
2018-08-27 00:40:17,0.02,1.30,0.00,26.38,30.03,32.69,13.86,47.42,1022.69,2014.93,2869.43,2729.01,3117.00,600.05,592.86,45.44,0000 0000 0000 0000 000000
2018-08-27 00:45:18,0.04,1.30,0.00,26.41,30.05,32.67,13.86,47.46,1022.65,2014.95,2868.76,2728.75,3116.45,599.72,592.52,45.49,0000 0000 0000 0000 000000
2018-08-27 00:50:19,0.04,1.31,0.00,26.44,30.06,32.65,13.78,47.30,1022.71,2014.96,2867.73,2728.03,3115.97,600.10,592.80,45.54,0000 0000 0000 0000 000000
2018-08-27 00:55:20,0.04,1.31,0.00,26.46,30.07,32.65,13.84,47.40,1022.81,2014.95,2866.96,2727.65,3115.17,599.71,592.47,45.59,0000 0000 0000 0000 000000
2018-08-27 01:00:22,0.03,1.31,0.00,26.48,30.09,32.66,13.79,47.35,1022.84,2014.92,2866.06,2727.00,3114.61,599.93,592.62,45.64,0000 0000 0000 0000 000000
2018-08-27 01:05:23,0.07,1.31,0.00,26.51,30.10,32.65,13.88,47.38,1022.81,2014.93,2865.01,2726.14,3113.64,600.10,592.76,45.69,0000 0000 0000 0000 000000
2018-08-27 01:10:24,0.07,1.32,0.00,26.54,30.12,32.63,13.78,47.28,1022.80,2014.87,2863.84,2725.12,3112.48,599.67,592.30,45.75,0000 0000 0000 0000 000000
2018-08-27 01:15:25,0.05,1.32,0.00,26.58,30.14,32.64,13.84,47.32,1022.90,2014.70,2862.72,2724.18,3111.45,600.06,592.73,45.80,0000 0000 0000 0000 000000
2018-08-27 01:20:27,0.03,1.32,0.00,26.61,30.16,32.64,13.79,47.33,1022.91,2014.49,2861.65,2723.36,3110.46,599.90,592.35,45.85,0000 0000 0000 0000 000000
2018-08-27 01:25:28,0.04,1.32,0.00,26.64,30.18,32.66,13.84,47.34,1022.91,2014.15,2860.60,2722.34,3109.35,600.02,592.47,45.90,0000 0000 0000 0000 000000
2018-08-27 01:30:29,0.04,1.33,0.00,26.67,30.20,32.67,13.77,47.28,1022.88,2014.05,2859.69,2721.70,3108.57,599.99,592.36,45.95,0000 0000 0000 0000 000000
2018-08-27 01:35:30,0.06,1.33,0.00,26.70,30.22,32.70,13.81,47.32,1022.93,2014.00,2858.66,2720.84,3107.53,599.99,592.30,46.00,0000 0000 0000 0000 000000
2018-08-27 01:40:32,0.06,1.33,0.00,26.73,30.24,32.72,13.79,47.27,1022.95,2014.00,2857.58,2719.96,3106.58,600.00,592.24,46.05,0000 0000 0000 0000 000000
2018-08-27 01:45:33,0.05,1.34,0.00,26.76,30.26,32.72,13.79,47.24,1022.95,2014.00,2856.69,2719.13,3105.68,599.86,592.05,46.10,0000 0000 0000 0000 000000
2018-08-27 01:50:34,0.04,1.34,0.00,26.79,30.29,32.75,13.83,47.23,1022.89,2014.00,2855.87,2718.49,3104.91,600.24,592.29,46.15,0000 0000 0000 0000 000000
2018-08-27 01:55:36,0.04,1.34,0.00,26.83,30.31,32.76,13.79,47.13,1022.85,2013.99,2855.01,2717.80,3104.08,600.08,592.04,46.20,0000 0000 0000 0000 000000
2018-08-27 02:00:37,0.06,1.34,0.00,26.86,30.34,32.78,13.79,47.12,1022.92,2013.97,2853.82,2716.91,3103.11,600.04,592.05,46.25,0000 0000 0000 0000 000000
2018-08-27 02:05:39,0.03,1.35,0.00,26.90,30.36,32.82,13.84,47.16,1022.95,2013.83,2852.95,2716.07,3102.16,599.81,591.82,46.30,0000 0000 0000 0000 000000
2018-08-27 02:10:40,0.03,1.35,0.00,26.94,30.39,32.84,13.77,47.13,1022.95,2013.54,2852.12,2715.37,3101.32,599.98,591.87,46.35,0000 0000 0000 0000 000000
2018-08-27 02:15:41,0.03,1.35,0.00,26.98,30.41,32.86,13.85,47.17,1022.96,2013.42,2851.43,2714.89,3100.76,599.75,591.51,46.40,0000 0000 0000 0000 000000
2018-08-27 02:20:42,0.02,1.35,0.00,27.02,30.44,32.88,13.87,47.19,1022.96,2013.12,2850.51,2714.06,3099.91,599.77,591.51,46.45,0000 0000 0000 0000 000000
2018-08-27 02:25:44,0.04,1.35,0.00,27.06,30.47,32.92,13.76,47.23,1022.96,2013.02,2849.92,2713.58,3099.08,599.77,591.46,46.50,0000 0000 0000 0000 000000
2018-08-27 02:30:45,0.03,1.35,0.00,27.10,30.50,32.94,13.72,47.22,1022.96,2013.00,2849.11,2713.01,3098.72,599.84,591.55,46.55,0000 0000 0000 0000 000000
2018-08-27 02:35:47,0.03,1.36,0.00,27.13,30.53,32.98,13.79,47.22,1022.96,2013.00,2848.69,2712.63,3098.02,600.02,591.48,46.61,0000 0000 0000 0000 000000
2018-08-27 02:40:48,0.03,1.36,0.00,27.17,30.56,33.02,13.72,47.17,1022.96,2013.00,2848.02,2712.02,3097.37,599.61,591.05,46.66,0000 0000 0000 0000 000000
2018-08-27 02:45:49,0.03,1.36,0.00,27.21,30.59,33.04,13.80,47.23,1022.96,2012.98,2847.45,2711.72,3096.95,600.15,591.49,46.71,0000 0000 0000 0000 000000
2018-08-27 02:50:50,0.02,1.36,0.00,27.24,30.62,33.07,13.81,47.27,1022.96,2012.84,2846.79,2711.03,3096.18,600.16,591.49,46.76,0000 0000 0000 0000 000000
2018-08-27 02:55:51,0.02,1.36,0.00,27.29,30.65,33.10,13.77,47.25,1022.94,2012.56,2845.91,2710.50,3095.68,599.87,591.17,46.81,0000 0000 0000 0000 000000
2018-08-27 03:00:53,-0.00,1.36,0.00,27.32,30.68,33.13,13.81,47.38,1022.87,2012.15,2844.98,2709.94,3094.92,600.12,591.25,46.86,0000 0000 0000 0000 000000
2018-08-27 03:05:54,0.05,1.36,0.00,27.35,30.71,33.16,13.78,47.37,1022.93,2012.01,2844.11,2709.11,3094.09,600.25,591.29,46.91,0000 0000 0000 0000 000000
2018-08-27 03:10:55,0.04,1.37,0.00,27.39,30.75,33.20,13.84,47.28,1022.96,2012.00,2843.52,2708.86,3093.62,600.02,591.06,46.96,0000 0000 0000 0000 000000
2018-08-27 03:15:57,0.03,1.37,0.00,27.43,30.78,33.24,13.77,47.32,1022.96,2012.00,2842.94,2708.14,3093.01,600.16,590.92,47.01,0000 0000 0000 0000 000000
2018-08-27 03:20:58,0.04,1.37,0.00,27.47,30.81,33.26,13.72,47.27,1022.96,2011.99,2842.16,2707.77,3092.40,599.87,590.75,47.06,0000 0000 0000 0000 000000
2018-08-27 03:25:59,0.06,1.37,0.00,27.50,30.84,33.30,13.76,47.23,1022.96,2011.92,2840.94,2706.88,3091.45,600.05,590.85,47.11,0000 0000 0000 0000 000000
2018-08-27 03:31:00,0.06,1.38,0.00,27.54,30.87,33.33,13.78,47.29,1022.96,2011.60,2838.75,2705.62,3090.12,600.16,590.86,47.16,0000 0000 0000 0000 000000
2018-08-27 03:36:02,0.01,1.38,0.00,27.57,30.91,33.37,13.77,47.27,1022.96,2011.09,2837.45,2704.88,3089.07,600.15,590.86,47.21,0000 0000 0000 0000 000000
2018-08-27 03:41:03,0.12,1.38,0.00,27.61,30.94,33.40,13.78,47.28,1022.96,2011.01,2835.28,2703.70,3087.78,600.12,590.69,47.26,0000 0000 0000 0000 000000
2018-08-27 03:46:04,0.11,1.39,0.00,27.65,30.97,33.43,13.67,47.21,1022.96,2011.00,2832.63,2702.47,3086.34,599.44,589.94,47.31,0000 0000 0000 0000 000000
2018-08-27 03:51:05,0.14,1.39,0.00,27.69,31.01,33.48,13.73,47.25,1022.96,2010.99,2829.37,2700.86,3084.50,599.71,590.16,47.36,0000 0000 0000 0000 000000
2018-08-27 03:56:06,0.10,1.40,0.00,27.71,31.04,33.51,13.73,47.23,1022.97,2010.82,2826.66,2699.41,3082.75,599.61,590.01,47.41,0000 0000 0000 0000 000000
2018-08-27 04:01:08,0.00,1.40,0.00,27.75,31.08,33.53,13.81,47.23,1022.97,2010.31,2825.16,2698.55,3081.86,600.03,590.27,47.46,0000 0000 0000 0000 000000
2018-08-27 04:06:09,0.03,1.40,0.00,27.79,31.11,33.57,13.81,47.27,1022.97,2010.05,2824.23,2698.01,3081.05,599.90,590.11,47.51,0000 0000 0000 0000 000000
2018-08-27 04:11:10,0.03,1.40,0.00,27.82,31.15,33.61,13.75,47.32,1022.99,2010.00,2823.97,2697.49,3080.66,600.36,590.54,47.57,0000 0000 0000 0000 000000
2018-08-27 04:16:11,0.03,1.41,0.00,27.86,31.18,33.65,13.77,47.25,1023.00,2010.00,2823.46,2697.03,3080.03,599.90,590.02,47.62,0000 0000 0000 0000 000000
2018-08-27 04:21:12,0.08,1.41,0.00,27.88,31.21,33.67,13.77,47.25,1022.99,2009.97,2822.10,2696.25,3079.03,600.30,590.34,47.67,0000 0000 0000 0000 000000
2018-08-27 04:26:14,0.02,1.41,0.00,27.91,31.25,33.71,13.77,47.36,1023.01,2009.42,2820.46,2695.08,3077.65,599.67,589.76,47.72,0000 0000 0000 0000 000000
2018-08-27 04:31:15,0.01,1.41,0.00,27.95,31.29,33.75,13.76,47.26,1023.05,2009.05,2819.83,2694.44,3076.98,599.65,589.55,47.77,0000 0000 0000 0000 000000
2018-08-27 04:36:16,0.08,1.41,0.00,27.98,31.32,33.78,13.75,47.21,1023.01,2009.00,2818.60,2693.65,3076.01,600.00,589.92,47.82,0000 0000 0000 0000 000000
2018-08-27 04:41:17,0.15,1.42,0.00,27.95,31.35,33.81,13.77,47.15,1023.08,2008.99,2815.88,2691.77,3073.89,600.10,590.07,47.87,0000 0000 0000 0000 000000
2018-08-27 04:46:19,0.03,1.43,0.00,27.87,31.37,33.85,13.73,47.08,1023.29,2008.97,2814.65,2690.98,3072.92,600.05,590.36,47.92,0000 0000 0000 0000 000000
2018-08-27 04:51:20,0.05,1.43,0.00,27.80,31.39,33.93,13.81,47.22,1023.33,2008.91,2813.69,2690.32,3072.12,599.87,590.35,47.97,0000 0000 0000 0000 000000
2018-08-27 04:56:21,0.04,1.43,0.00,27.70,31.40,34.12,13.78,47.28,1023.26,2008.64,2812.55,2689.57,3071.36,599.94,590.50,48.02,0000 0000 0000 0000 000000
2018-08-27 05:01:23,0.08,1.43,0.00,27.63,31.40,34.26,13.81,47.17,1023.26,2008.54,2810.83,2688.51,3070.21,600.07,590.82,48.07,0000 0000 0000 0000 000000
2018-08-27 05:06:24,0.09,1.44,0.00,27.57,31.40,34.28,13.95,47.14,1023.25,2008.63,2809.44,2687.63,3069.16,600.38,591.23,48.12,0000 0000 0000 0000 000000
2018-08-27 05:11:25,0.08,1.44,0.00,27.53,31.40,34.23,13.86,47.04,1023.08,2008.87,2808.09,2686.78,3068.28,600.14,590.96,48.17,0000 0000 0000 0000 000000
2018-08-27 05:16:27,0.13,1.45,0.00,27.50,31.40,34.21,13.75,46.98,1022.99,2008.97,2805.85,2685.40,3066.71,599.69,590.53,48.22,0000 0000 0000 0000 000000
2018-08-27 05:21:28,0.16,1.46,0.00,27.48,31.39,34.16,13.84,46.97,1022.99,2008.98,2803.02,2683.50,3064.53,600.03,590.79,48.27,0000 0000 0000 0000 000000
2018-08-27 05:26:29,0.16,1.46,0.00,27.47,31.37,34.09,13.85,46.87,1023.00,2008.98,2800.06,2681.52,3062.30,600.23,591.04,48.32,0000 0000 0000 0000 000000
2018-08-27 05:31:30,0.24,1.47,0.00,27.47,31.37,34.06,13.84,47.01,1023.09,2008.99,2796.31,2679.00,3059.49,599.98,590.83,48.37,0000 0000 0000 0000 000000
2018-08-27 05:36:32,0.20,1.49,0.00,27.47,31.36,34.03,13.83,46.92,1023.10,2008.99,2791.80,2676.02,3056.23,599.94,590.95,48.42,0000 0000 0000 0000 000000
2018-08-27 05:41:33,0.15,1.50,0.00,27.47,31.35,33.98,13.74,46.86,1023.04,2008.99,2789.00,2674.14,3054.11,599.96,590.77,48.47,0000 0000 0000 0000 000000
2018-08-27 05:46:35,0.14,1.50,0.00,27.49,31.33,33.97,13.82,46.89,1023.00,2008.99,2786.32,2672.30,3051.96,599.95,590.83,48.53,0000 0000 0000 0000 000000
2018-08-27 05:51:36,0.12,1.51,0.00,27.51,31.32,33.91,13.77,46.83,1023.01,2008.99,2783.94,2670.59,3050.10,599.66,590.55,48.58,0000 0000 0000 0000 000000
2018-08-27 05:56:38,0.06,1.52,0.00,27.53,31.30,33.89,13.79,46.87,1023.02,2008.99,2782.52,2669.77,3049.01,600.07,590.83,48.63,0000 0000 0000 0000 000000
2018-08-27 06:01:39,0.07,1.52,0.00,27.55,31.30,33.88,13.85,46.88,1022.98,2008.99,2781.08,2668.84,3048.03,600.38,591.00,48.68,0000 0000 0000 0000 000000
2018-08-27 06:06:40,0.06,1.52,0.00,27.58,31.30,33.85,13.81,46.87,1022.99,2008.99,2779.93,2668.03,3047.10,600.01,590.70,48.73,0000 0000 0000 0000 000000
2018-08-27 06:11:42,0.04,1.52,0.00,27.60,31.29,33.85,13.84,46.98,1022.97,2008.99,2779.19,2667.75,3046.73,599.86,590.45,48.78,0000 0000 0000 0000 000000
2018-08-27 06:16:43,0.04,1.53,0.00,27.63,31.27,33.83,13.78,46.98,1022.96,2009.01,2778.42,2667.05,3046.05,599.95,590.49,48.83,0000 0000 0000 0000 000000
2018-08-27 06:21:45,0.02,1.53,0.00,27.66,31.27,33.82,13.77,46.88,1022.96,2009.05,2777.67,2666.98,3045.98,599.91,590.47,48.88,0000 0000 0000 0000 000000
2018-08-27 06:26:46,0.05,1.53,0.00,27.69,31.27,33.73,13.73,46.83,1022.98,2009.31,2777.03,2666.76,3045.75,599.76,590.26,48.93,0000 0000 0000 0000 000000
2018-08-27 06:31:47,0.02,1.53,0.00,27.72,31.27,33.70,13.76,46.99,1022.98,2009.40,2776.99,2666.22,3045.19,599.60,590.03,48.98,0000 0000 0000 0000 000000
2018-08-27 06:36:48,0.03,1.53,0.00,27.76,31.27,33.68,13.74,46.93,1022.96,2009.44,2776.71,2666.03,3045.01,600.08,590.39,49.03,0000 0000 0000 0000 000000
2018-08-27 06:41:49,0.01,1.53,0.00,27.78,31.27,33.67,13.82,46.92,1022.97,2009.58,2776.09,2666.00,3045.00,599.95,590.05,49.08,0000 0000 0000 0000 000000
2018-08-27 06:46:50,0.00,1.53,0.00,27.81,31.27,33.67,13.78,46.90,1022.96,2009.49,2776.00,2665.98,3044.91,600.34,590.50,49.13,0000 0000 0000 0000 000000
2018-08-27 06:51:51,-0.01,1.53,0.00,27.85,31.28,33.66,13.71,46.90,1022.96,2009.26,2775.98,2665.78,3044.31,599.54,589.73,49.18,0000 0000 0000 0000 000000
2018-08-27 06:56:52,0.02,1.54,0.00,27.88,31.30,33.66,13.74,46.89,1022.96,2009.32,2775.74,2665.30,3044.03,599.86,589.89,49.23,0000 0000 0000 0000 000000
2018-08-27 07:01:53,0.09,1.54,0.00,27.92,31.30,33.66,13.80,46.92,1022.96,2009.17,2774.24,2664.60,3043.18,600.41,590.38,49.28,0000 0000 0000 0000 000000
2018-08-27 07:06:55,0.05,1.54,0.00,27.96,31.30,33.67,13.76,46.98,1022.96,2009.10,2772.31,2663.53,3042.02,599.98,589.77,49.33,0000 0000 0000 0000 000000
2018-08-27 07:11:56,0.01,1.54,0.00,28.00,31.32,33.69,13.76,47.02,1022.96,2009.11,2772.01,2663.05,3041.97,600.14,589.92,49.39,0000 0000 0000 0000 000000
2018-08-27 07:16:57,0.01,1.54,0.00,28.03,31.32,33.70,13.68,46.99,1022.97,2009.03,2771.98,2663.00,3041.41,599.66,589.47,49.44,0000 0000 0000 0000 000000
2018-08-27 07:21:58,0.01,1.55,0.00,28.07,31.35,33.72,13.72,47.04,1022.97,2009.00,2771.34,2662.94,3041.01,599.80,589.44,49.49,0000 0000 0000 0000 000000
2018-08-27 07:26:59,0.02,1.55,0.00,28.11,31.36,33.73,13.70,47.09,1022.97,2009.00,2771.01,2662.58,3040.99,600.00,589.60,49.54,0000 0000 0000 0000 000000
2018-08-27 07:32:01,0.02,1.55,0.00,28.15,31.37,33.75,13.70,47.11,1022.98,2009.00,2770.94,2662.05,3040.66,600.08,589.64,49.59,0000 0000 0000 0000 000000
2018-08-27 07:37:02,0.02,1.55,0.00,28.18,31.38,33.76,13.66,47.01,1022.97,2009.00,2770.28,2662.00,3040.05,599.99,589.49,49.64,0000 0000 0000 0000 000000
2018-08-27 07:42:04,0.00,1.55,0.00,28.22,31.40,33.78,13.68,47.03,1022.98,2009.00,2770.00,2661.90,3040.00,599.82,589.26,49.69,0000 0000 0000 0000 000000
2018-08-27 07:47:06,0.02,1.55,0.00,28.26,31.42,33.80,13.79,47.08,1022.97,2008.99,2769.97,2661.34,3039.83,600.13,589.40,49.74,0000 0000 0000 0000 000000
2018-08-27 07:52:08,-0.00,1.55,0.00,28.31,31.44,33.82,13.69,47.11,1022.97,2008.81,2769.91,2661.04,3039.17,600.06,589.25,49.79,0000 0000 0000 0000 000000
2018-08-27 07:57:10,-0.05,1.55,0.00,28.35,31.46,33.84,13.65,46.90,1022.97,2008.24,2769.64,2661.00,3038.99,599.66,588.85,49.84,0000 0000 0000 0000 000000
2018-08-27 08:02:12,0.01,1.55,0.00,28.40,31.49,33.86,13.66,46.92,1022.98,2008.07,2769.04,2660.96,3038.87,599.85,588.84,49.89,0000 0000 0000 0000 000000
2018-08-27 08:07:14,0.04,1.55,0.00,28.44,31.51,33.89,13.74,46.86,1022.98,2008.05,2768.70,2660.29,3038.13,600.12,589.05,49.94,0000 0000 0000 0000 000000
2018-08-27 08:12:16,0.01,1.55,0.00,28.49,31.54,33.91,13.77,46.77,1022.98,2008.00,2768.03,2660.00,3037.97,600.01,588.86,49.99,0000 0000 0000 0000 000000
2018-08-27 08:17:18,0.01,1.55,0.00,28.54,31.57,33.95,13.79,46.83,1022.97,2008.00,2767.99,2659.99,3037.46,600.28,588.95,50.04,0000 0000 0000 0000 000000
2018-08-27 08:22:19,0.04,1.55,0.00,28.56,31.60,33.99,13.77,46.92,1022.98,2008.00,2767.67,2659.57,3037.01,600.32,589.11,50.09,0000 0000 0000 0000 000000
2018-08-27 08:27:21,0.02,1.56,0.00,28.53,31.62,34.04,13.72,47.02,1022.99,2007.97,2767.01,2659.01,3036.54,600.15,588.90,50.14,0000 0000 0000 0000 000000
2018-08-27 08:32:23,0.01,1.56,0.00,28.47,31.65,34.09,13.78,46.81,1022.99,2007.85,2766.70,2658.83,3036.01,600.38,589.15,50.19,0000 0000 0000 0000 000000
2018-08-27 08:37:24,0.02,1.56,0.00,28.41,31.67,34.14,13.78,46.92,1023.01,2007.60,2766.02,2658.07,3035.80,600.16,589.09,50.25,0000 0000 0000 0000 000000
2018-08-27 08:42:26,-0.02,1.56,0.00,28.34,31.67,34.18,13.75,47.08,1022.99,2007.20,2765.62,2658.00,3035.10,599.90,589.00,50.30,0000 0000 0000 0000 000000
2018-08-27 08:47:28,0.02,1.56,0.00,28.30,31.70,34.21,13.77,47.00,1022.98,2007.04,2764.83,2657.80,3034.79,600.20,589.53,50.35,0000 0000 0000 0000 000000
2018-08-27 08:52:29,0.23,1.57,0.00,28.25,31.70,34.27,13.74,46.89,1022.97,2007.02,2761.02,2655.37,3032.34,599.83,589.19,50.40,0000 0000 0000 0000 000000
2018-08-27 08:57:30,0.00,1.57,0.00,28.22,31.70,34.32,13.70,47.00,1022.96,2007.01,2760.28,2655.00,3031.97,599.97,589.36,50.45,0000 0000 0000 0000 000000
2018-08-27 09:02:31,0.01,1.57,0.00,28.25,31.70,34.30,13.74,47.17,1022.96,2007.00,2760.06,2654.97,3031.68,599.72,589.03,50.50,0000 0000 0000 0000 000000
2018-08-27 09:07:32,0.03,1.57,0.00,28.29,31.70,34.24,13.76,47.15,1022.96,2007.00,2759.97,2654.65,3031.15,600.11,589.35,50.55,0000 0000 0000 0000 000000
2018-08-27 09:12:34,0.03,1.57,0.00,28.33,31.70,34.14,13.72,46.97,1022.96,2007.00,2759.37,2654.04,3030.84,599.64,588.76,50.60,0000 0000 0000 0000 000000
2018-08-27 09:17:35,0.03,1.57,0.00,28.38,31.70,34.09,13.74,47.00,1022.97,2007.00,2758.96,2653.58,3030.05,599.81,588.88,50.65,0000 0000 0000 0000 000000
2018-08-27 09:22:36,0.01,1.57,0.00,28.43,31.71,34.08,13.77,46.97,1022.97,2007.00,2758.75,2653.12,3029.99,600.18,589.09,50.70,0000 0000 0000 0000 000000
2018-08-27 09:27:38,0.01,1.58,0.00,28.48,31.72,34.07,13.72,46.92,1022.97,2007.00,2758.17,2653.00,3029.84,600.20,588.99,50.75,0000 0000 0000 0000 000000
2018-08-27 09:32:39,0.01,1.58,0.00,28.53,31.72,34.07,13.69,46.87,1022.98,2006.99,2758.00,2653.00,3029.25,600.06,588.72,50.80,0000 0000 0000 0000 000000
2018-08-27 09:37:40,0.00,1.58,0.00,28.58,31.75,34.08,13.74,46.96,1022.98,2006.98,2757.96,2652.96,3029.00,600.08,588.75,50.85,0000 0000 0000 0000 000000
2018-08-27 09:42:42,0.03,1.58,0.00,28.63,31.75,34.09,13.72,46.85,1022.98,2006.93,2757.37,2652.43,3028.96,600.10,588.67,50.90,0000 0000 0000 0000 000000
2018-08-27 09:47:43,0.02,1.58,0.00,28.69,31.77,34.11,13.70,46.82,1022.98,2006.85,2757.01,2652.05,3028.26,599.96,588.43,50.95,0000 0000 0000 0000 000000
2018-08-27 09:52:45,0.00,1.58,0.00,28.73,31.79,34.13,13.71,46.88,1022.98,2006.82,2756.86,2652.00,3028.01,600.16,588.55,51.00,0000 0000 0000 0000 000000
2018-08-27 09:57:46,-0.01,1.58,0.00,28.78,31.81,34.16,13.61,46.79,1022.98,2006.44,2756.11,2651.79,3027.89,600.09,588.29,51.05,0000 0000 0000 0000 000000
2018-08-27 10:02:47,0.02,1.58,0.00,28.83,31.83,34.18,13.71,46.86,1022.98,2006.28,2755.99,2651.14,3027.28,599.84,588.03,51.11,0000 0000 0000 0000 000000
2018-08-27 10:07:48,0.01,1.58,0.00,28.87,31.85,34.21,13.71,46.81,1022.98,2006.10,2755.39,2651.00,3027.00,599.99,588.08,51.16,0000 0000 0000 0000 000000
2018-08-27 10:12:49,0.02,1.58,0.00,28.91,31.88,34.23,13.67,46.87,1022.99,2006.10,2754.93,2650.89,3026.81,599.97,587.96,51.21,0000 0000 0000 0000 000000
2018-08-27 10:17:51,0.05,1.58,0.00,28.95,31.90,34.27,13.68,46.74,1022.98,2006.05,2754.11,2650.11,3026.05,600.05,587.97,51.26,0000 0000 0000 0000 000000
2018-08-27 10:22:52,0.04,1.58,0.00,28.98,31.93,34.30,13.66,46.82,1022.97,2006.00,2753.46,2649.82,3025.52,599.46,587.39,51.31,0000 0000 0000 0000 000000
2018-08-27 10:27:53,0.03,1.59,0.00,29.01,31.95,34.34,13.70,46.70,1022.98,2006.00,2752.97,2649.10,3025.00,600.20,587.91,51.36,0000 0000 0000 0000 000000
2018-08-27 10:32:55,0.03,1.59,0.00,29.05,31.98,34.37,13.63,46.75,1022.98,2006.00,2752.16,2648.98,3024.38,599.89,587.57,51.41,0000 0000 0000 0000 000000
2018-08-27 10:37:56,0.02,1.59,0.00,29.08,32.00,34.41,13.66,46.79,1022.98,2005.99,2752.00,2648.60,3024.01,599.94,587.53,51.46,0000 0000 0000 0000 000000
2018-08-27 10:42:57,0.02,1.59,0.00,29.11,32.03,34.45,13.72,46.82,1022.97,2005.95,2751.70,2648.04,3023.92,599.85,587.48,51.51,0000 0000 0000 0000 000000
2018-08-27 10:47:59,-0.03,1.59,0.00,29.14,32.06,34.49,13.65,46.74,1022.97,2005.53,2751.05,2647.99,3023.20,599.91,587.62,51.56,0000 0000 0000 0000 000000
2018-08-27 10:53:00,-0.01,1.59,0.00,29.17,32.08,34.53,13.74,46.77,1022.99,2005.16,2750.99,2647.71,3023.00,600.17,587.77,51.61,0000 0000 0000 0000 000000
2018-08-27 10:58:01,0.04,1.59,0.00,29.22,32.11,34.57,13.69,46.75,1022.99,2005.02,2750.61,2647.08,3022.55,600.05,587.36,51.66,0000 0000 0000 0000 000000
2018-08-27 11:03:02,0.01,1.59,0.00,29.29,32.14,34.61,13.68,46.73,1023.01,2005.00,2750.03,2647.00,3022.02,599.79,587.03,51.71,0000 0000 0000 0000 000000
2018-08-27 11:08:03,0.01,1.59,0.00,29.39,32.16,34.65,13.61,46.68,1023.10,2005.00,2749.99,2646.80,3021.91,600.03,587.08,51.76,0000 0000 0000 0000 000000
2018-08-27 11:13:04,0.05,1.59,0.00,29.46,32.19,34.68,13.65,46.70,1023.27,2004.95,2749.14,2646.01,3020.97,599.90,587.03,51.81,0000 0000 0000 0000 000000
2018-08-27 11:18:05,0.10,1.60,0.00,29.43,32.21,34.73,13.72,46.77,1023.43,2004.85,2747.57,2644.81,3019.60,600.07,587.39,51.86,0000 0000 0000 0000 000000
2018-08-27 11:23:07,-0.02,1.60,0.00,29.36,32.24,34.77,13.73,46.84,1023.41,2004.50,2746.67,2644.02,3018.96,600.16,587.57,51.91,0000 0000 0000 0000 000000
2018-08-27 11:28:09,0.03,1.60,0.00,29.28,32.25,34.77,13.68,46.63,1023.45,2004.38,2746.07,2643.99,3018.38,599.76,587.34,51.96,0000 0000 0000 0000 000000
2018-08-27 11:33:10,-0.00,1.60,0.00,29.20,32.27,34.80,13.64,46.82,1023.45,2004.11,2745.93,2643.56,3018.01,599.92,587.60,52.01,0000 0000 0000 0000 000000
2018-08-27 11:38:11,0.02,1.60,0.00,29.13,32.29,34.82,13.68,46.77,1023.45,2004.01,2745.31,2643.06,3017.84,599.94,587.76,52.06,0000 0000 0000 0000 000000
2018-08-27 11:43:12,0.07,1.60,0.00,29.08,32.30,34.83,13.73,46.82,1023.43,2004.00,2744.46,2642.46,3016.75,600.09,588.07,52.12,0000 0000 0000 0000 000000
2018-08-27 11:48:14,0.04,1.61,0.00,29.03,32.31,34.83,13.72,46.87,1023.44,2004.00,2743.22,2641.80,3015.99,599.88,587.96,52.17,0000 0000 0000 0000 000000
2018-08-27 11:53:15,0.07,1.61,0.00,28.99,32.32,34.84,13.73,46.87,1023.44,2004.00,2742.27,2640.88,3014.97,600.31,588.42,52.22,0000 0000 0000 0000 000000
2018-08-27 11:58:17,0.14,1.61,0.00,28.95,32.32,34.84,13.69,46.80,1023.45,2004.00,2740.24,2639.45,3013.27,599.85,588.10,52.27,0000 0000 0000 0000 000000
2018-08-27 12:03:18,0.21,1.62,0.00,28.92,32.32,34.84,13.71,46.74,1023.45,2003.99,2736.97,2637.00,3010.44,600.10,588.39,52.32,0000 0000 0000 0000 000000
2018-08-27 12:08:19,0.16,1.63,0.00,28.89,32.32,34.83,13.69,46.84,1023.45,2003.98,2733.97,2634.67,3007.88,599.94,588.28,52.37,0000 0000 0000 0000 000000
2018-08-27 12:13:20,0.15,1.64,0.00,28.86,32.32,34.82,13.70,46.88,1023.45,2003.98,2731.47,2632.79,3005.84,599.91,588.28,52.42,0000 0000 0000 0000 000000
2018-08-27 12:18:22,0.09,1.65,0.00,28.84,32.32,34.83,13.72,46.90,1023.45,2003.98,2729.68,2631.38,3004.18,600.15,588.58,52.47,0000 0000 0000 0000 000000
2018-08-27 12:23:24,0.06,1.65,0.00,28.81,32.32,34.82,13.75,46.99,1023.45,2003.94,2728.45,2630.46,3003.13,600.02,588.45,52.52,0000 0000 0000 0000 000000
2018-08-27 12:28:25,0.05,1.66,0.00,28.79,32.30,34.83,13.70,46.87,1023.45,2003.97,2727.53,2629.97,3002.34,600.11,588.68,52.57,0000 0000 0000 0000 000000
2018-08-27 12:33:26,0.02,1.66,0.00,28.77,32.30,34.82,13.77,46.92,1023.43,2003.88,2727.00,2629.29,3001.94,599.86,588.48,52.62,0000 0000 0000 0000 000000
2018-08-27 12:38:27,0.03,1.66,0.00,28.75,32.30,34.81,13.70,46.90,1023.44,2003.74,2726.28,2628.99,3001.22,599.75,588.43,52.67,0000 0000 0000 0000 000000
2018-08-27 12:43:28,0.08,1.66,0.00,28.72,32.28,34.81,13.68,46.87,1023.43,2003.89,2725.37,2628.29,3000.60,599.75,588.34,52.72,0000 0000 0000 0000 000000
2018-08-27 12:48:30,0.09,1.67,0.00,28.70,32.27,34.80,13.78,46.90,1023.34,2003.95,2723.75,2627.10,2999.21,600.14,588.80,52.77,0000 0000 0000 0000 000000
2018-08-27 12:53:31,0.10,1.67,0.00,28.67,32.26,34.79,13.80,46.83,1023.23,2003.91,2722.21,2625.86,2997.68,599.95,588.71,52.82,0000 0000 0000 0000 000000